TimeMST,TemperatureF,Dew PointF,Humidity,Sea Level PressureIn,VisibilityMPH,Wind Direction,Wind SpeedMPH,Gust SpeedMPH,PrecipitationIn,Events,Conditions,WindDirDegrees,DateUTC
12:53 AM,32.0,27.0,82,29.63,10.0,NNW,4.6,-,N/A,,Overcast,330,2013-02-20 07:53:00
1:07 AM,32.0,26.6,80,29.63,10.0,NNW,4.6,-,N/A,,Overcast,330,2013-02-20 08:07:00
1:48 AM,30.2,28.4,93,29.63,1.8,NW,6.9,-,0.00,Snow,Light Snow,320,2013-02-20 08:48:00
1:53 AM,30.9,28.0,89,29.64,1.5,NNW,8.1,-,0.00,Snow,Light Snow,330,2013-02-20 08:53:00
2:04 AM,30.2,28.4,93,29.64,2.0,NNW,5.8,-,0.00,Snow,Light Snow,340,2013-02-20 09:04:00
2:19 AM,30.2,28.4,93,29.64,5.0,NNW,4.6,-,0.00,Snow,Light Snow,330,2013-02-20 09:19:00
2:53 AM,30.9,30.0,96,29.64,2.5,NW,4.6,-,0.00,Snow,Light Snow,320,2013-02-20 09:53:00
3:05 AM,30.2,30.2,100,29.64,1.2,NW,5.8,-,0.01,Snow,Light Snow,320,2013-02-20 10:05:00
3:22 AM,30.2,30.2,100,29.64,1.2,NW,5.8,-,0.01,Snow,Light Snow,320,2013-02-20 10:22:00
3:33 AM,30.2,30.2,100,29.64,1.8,NW,5.8,-,0.02,Snow,Light Snow,310,2013-02-20 10:33:00
3:46 AM,30.2,30.2,100,29.64,1.5,NW,6.9,-,0.02,Snow,Light Snow,320,2013-02-20 10:46:00
3:53 AM,30.9,30.0,96,29.65,1.5,NW,4.6,-,0.02,Snow,Light Snow,320,2013-02-20 10:53:00
4:05 AM,30.2,30.2,100,29.65,2.5,WNW,4.6,-,0.00,Snow,Light Snow,290,2013-02-20 11:05:00
4:14 AM,30.2,30.2,100,29.64,2.0,WNW,4.6,-,0.01,Snow,Light Snow,300,2013-02-20 11:14:00
4:21 AM,30.2,30.2,100,29.64,1.5,WNW,5.8,-,0.01,Snow,Light Snow,290,2013-02-20 11:21:00
4:29 AM,30.2,30.2,100,29.65,1.2,WNW,6.9,-,0.01,Snow,Light Snow,290,2013-02-20 11:29:00
4:50 AM,30.2,28.4,93,29.65,1.5,West,5.8,-,0.02,Snow,Light Snow,280,2013-02-20 11:50:00
4:53 AM,30.0,28.9,96,29.66,1.5,West,5.8,-,0.03,Snow,Light Snow,270,2013-02-20 11:53:00
5:20 AM,30.2,28.4,93,29.66,2.5,West,11.5,-,0.00,Snow,Light Snow,260,2013-02-20 12:20:00
5:29 AM,28.4,28.4,100,29.66,4.0,West,11.5,-,0.00,Snow,Light Snow,270,2013-02-20 12:29:00
5:41 AM,28.4,26.6,93,29.66,5.0,West,11.5,-,0.00,Snow,Light Snow,270,2013-02-20 12:41:00
5:53 AM,28.9,27.0,92,29.69,4.0,West,11.5,-,0.00,Snow,Light Snow,270,2013-02-20 12:53:00
6:37 AM,28.4,26.6,93,29.67,2.0,West,11.5,19.6,0.01,Snow,Light Snow,270,2013-02-20 13:37:00
6:44 AM,28.4,26.6,93,29.68,1.8,West,10.4,-,0.01,Snow,Light Snow,270,2013-02-20 13:44:00
6:53 AM,28.0,26.1,92,29.72,2.5,West,10.4,17.3,0.01,Snow,Light Snow,270,2013-02-20 13:53:00
7:08 AM,28.4,26.6,93,29.68,4.0,West,8.1,16.1,0.00,Snow,Light Snow,270,2013-02-20 14:08:00
7:36 AM,26.6,24.8,93,29.69,3.0,West,11.5,-,0.00,Snow,Light Snow,270,2013-02-20 14:36:00
7:43 AM,26.6,24.8,93,29.70,1.8,West,11.5,-,0.00,Snow,Light Snow,270,2013-02-20 14:43:00
7:46 AM,26.6,24.8,93,29.70,1.2,West,13.8,19.6,0.00,Snow,Light Snow,270,2013-02-20 14:46:00
7:53 AM,27.0,25.0,92,29.74,0.8,West,15.0,-,0.00,Snow,Light Snow,260,2013-02-20 14:53:00
7:57 AM,26.6,24.8,93,29.70,1.0,West,15.0,23.0,0.00,Snow,Light Snow,270,2013-02-20 14:57:00
8:28 AM,26.6,24.8,93,29.71,1.2,West,18.4,24.2,0.01,Snow,Light Snow,260,2013-02-20 15:28:00
8:35 AM,26.6,23.0,86,29.72,1.2,West,16.1,24.2,0.01,Snow,Light Snow,260,2013-02-20 15:35:00
8:53 AM,26.1,23.0,88,29.78,1.0,West,16.1,21.9,0.01,Snow,Light Snow,260,2013-02-20 15:53:00
9:00 AM,26.6,23.0,86,29.72,0.8,West,13.8,21.9,0.00,Snow,Light Snow,260,2013-02-20 16:00:00
9:09 AM,26.6,23.0,86,29.73,0.8,West,17.3,23.0,0.00,Snow,Light Snow,260,2013-02-20 16:09:00
9:37 AM,26.6,23.0,86,29.74,1.0,West,13.8,23.0,0.00,Snow,Light Snow,260,2013-02-20 16:37:00
9:49 AM,26.6,23.0,86,29.75,1.2,West,13.8,25.3,0.00,Snow,Light Snow,260,2013-02-20 16:49:00
9:53 AM,26.1,23.0,88,29.80,1.2,WSW,13.8,23.0,0.00,Snow,Light Snow,250,2013-02-20 16:53:00
10:17 AM,24.8,23.0,93,29.76,3.0,WSW,11.5,20.7,0.00,Snow,Light Snow,240,2013-02-20 17:17:00
10:53 AM,25.0,21.9,88,29.83,3.0,WSW,11.5,19.6,0.00,Snow,Light Snow,240,2013-02-20 17:53:00
11:18 AM,26.6,21.2,80,29.78,2.0,WSW,11.5,20.7,0.00,Snow,Light Snow,250,2013-02-20 18:18:00
11:42 AM,26.6,21.2,80,29.78,4.0,WSW,11.5,24.2,0.00,Snow,Light Snow,250,2013-02-20 18:42:00
11:53 AM,26.1,21.9,84,29.84,3.0,West,8.1,19.6,0.00,Snow,Light Snow,260,2013-02-20 18:53:00
12:00 PM,26.6,21.2,80,29.78,2.0,West,9.2,19.6,0.00,Snow,Light Snow,260,2013-02-20 19:00:00
12:11 PM,26.6,21.2,80,29.78,4.0,WSW,10.4,20.7,0.00,Snow,Light Snow,250,2013-02-20 19:11:00
12:29 PM,26.6,21.2,80,29.78,9.0,WSW,13.8,21.9,0.00,Snow,Light Snow,250,2013-02-20 19:29:00
12:53 PM,28.0,21.9,78,29.83,10.0,WSW,11.5,19.6,0.00,Snow,Light Snow,250,2013-02-20 19:53:00
1:53 PM,30.0,23.0,75,29.81,10.0,WSW,13.8,24.2,0.00,,Overcast,250,2013-02-20 20:53:00
2:45 PM,30.2,23.0,75,29.76,10.0,WSW,17.3,24.2,0.00,,Overcast,250,2013-02-20 21:45:00
2:53 PM,30.9,23.0,72,29.80,10.0,WSW,17.3,-,0.00,,Overcast,240,2013-02-20 21:53:00
3:02 PM,32.0,23.0,69,29.76,10.0,WSW,18.4,-,N/A,,Overcast,240,2013-02-20 22:02:00
4:53 PM,33.1,21.9,64,29.80,10.0,WSW,17.3,-,N/A,,Mostly Cloudy,240,2013-02-20 23:53:00
5:53 PM,30.9,21.0,67,29.82,10.0,SW,13.8,-,N/A,,Clear,230,2013-02-21 00:53:00
6:53 PM,28.9,19.0,67,29.84,10.0,SW,13.8,-,N/A,,Clear,230,2013-02-21 01:53:00
7:53 PM,28.0,18.0,66,29.86,10.0,SW,12.7,-,N/A,,Clear,230,2013-02-21 02:53:00
9:53 PM,27.0,17.1,66,29.89,10.0,SW,13.8,-,N/A,,Clear,230,2013-02-21 04:53:00
10:53 PM,26.1,17.1,69,29.90,10.0,SW,11.5,-,N/A,,Clear,220,2013-02-21 05:53:00
11:53 PM,26.1,17.1,69,29.90,10.0,SW,11.5,-,N/A,,Clear,220,2013-02-21 06:53:00